Погода Весёлая Горка

Погода Весёлая Горка : погода сейчас, прогноз погоды и архив. Всё, что Вы хотите узнать о погоде Весёлая Горка!

Поиск расширенной информации на нашем сайте:

Другие новости

Новости СМИ2

Главная страница сайта

Новости сайта

02.10.2013

Напоминаем, что на нашем новом сайте вы можете получить высокодетализированные прогнозы погоды по пунктам России, СНГ и мира (включающие важные для авиации метеовеличины, такие как направление и скорость ветра, видимость, явления погоды, количество и форма облачности, нижняя и верхняя граница облачности), а также ознакомиться с разнообразными материалами по авиационной метеорологии и подборкой полезных ссылок на эту тему.

Сайт Метеоцентр.Азия посвящён разработке технологий оптимизации авиаметеорологического обслуживания, включая проектирование и перспективное создание нескольких автоматизированных авиаметеорологических систем:
- система выпуска высокодетальных прогностических карт явлений погоды для нижнего воздушного пространства по России и ближнему зарубежью;
- система верификации прогнозов TAF (выпускаемых синоптиками официальных АМСГ РФ и ближнего зарубежья) и AUTOTAF (выпускаемых сайтом Метеоцентр.Азия) - выявление ошибок, онлайн-сопоставление с фактической погодой METAR, автоматическое внесение коррективов в прогнозы при резком отклонении фактической погоды от прогноза, подсчёт оправдываемости прогнозов по элементам и в целом;
- система обработки, анализа и отображения авиаметеорологической информации для применения провайдерами метеорологической информации.

Рекомендуем: Смотрим документальное кино.

Погода Весёлая Горка - сегодня

Время (UTC), дата Ветер
(°,м/с) 
Видим.   Явления Облачность Т
(°С)
Тd
(°С)
f(%) Тe
(°С)
Pmin
(гПа)
dP
(гПа)
Po
(мм)
O2
(г/м3)
Тmin Tmax R s Состояние
почвы
06 23.03.17 050 (СВ) 20000 м  {ливн. осадки}  10/10 600 м кучево-дожд. 
[Cb cap]
+1.9 -3.5 67 +1  1018.8  -0.5  745  299           
12 23.03.17 тихо ()   10 км  слаб. ливневой снег  10/10 600 м кучево-дожд. 
[Cb cap]
-1.1 -3 87 -1  1020.9  1.2  747  302           
15 23.03.17 260 (З) н/о    н/о 
-2.3 -4.6 84 -2  1020.9  -0.2  747  304           
18 23.03.17 070 (В) 10 км  {ливн. осадки}  ясно 600 м 
-5.1 -5.8 95 -5  1020.3  -0.8  746  307           
21 23.03.17 тихо ()   20000 м    3/0 средняя, верхняя 
[Ac lent|Ci fib]
-5.2 -6.2 93 -5  1020.6  0.3  746  307  -5.5    0.0  30  равномерный
сухой снег
100% 
00 24.03.17 тихо ()   20000 м    ясно 
+1 -7 55 +1  1020.1  0.1  746  300           
03 24.03.17 050 (СВ) 20000 м    4/4 600 м 
[Cu med, cong]
+3.7 -11.4 32 +5  1018.5  -1.3  745  297           
06 24.03.17 050 (СВ) 20000 м    3/3 600 м 
[Sc diur, vesp]
+3.8 -11.8 31 +3  1017.2  -1.2  744  297           
09 24.03.17 тихо ()   20000 м    1/1 600 м 
[Sc]
+1.5 -13.5 32 +2  1018  0.5  745  300    +4.6       
12 24.03.17 тихо ()   20000 м    ясно 
-2.1 -12.2 46 -2  1019.3  0.9  745  304           
15 24.03.17 тихо ()   20000 м    ясно 
-3.1 -11.8 51 -3  1019.5  0.1  745  305           
18 24.03.17 тихо ()   20000 м    ясно 
-3.9 -11.1 57 -4  1018.9  -0.6  745  306           
21 24.03.17 270 (З) 20000 м    8/8 600 м 
[Sc]
-4.9 -8.9 74 -4  1019.2  0.2  745  307  -5.4      29  равномерный
сухой снег
100% 
00 25.03.17 270 (З) 20000 м    ясно 
-0.5 -9.1 52 1018.9  0.1  745  302  -5.7         
03 25.03.17 050 (СВ) 20000 м    3/3 600 м кучево-дожд. 
[Cb cap]
+3.3 -10.5 36 +4  1017.2  -1.2  744  297           
06 25.03.17 020 (С) 20000 м    8/8 600 м кучево-дожд. 
[Cb cap]
+3.3 -12.2 31 +4  1016.7  -0.5  744  297           
09 25.03.17 тихо ()   20000 м    3/3 600 м средняя 
[Sc diur, vesp|Ac lent]
-1.3 -11.5 46 -1  1017.6  0.6  744  302    +4       
12 25.03.17 250 (З) н/о    н/о 
-2.5 -10.3 55 -2  1019  0.9  745  304           
15 25.03.17 тихо ()   20000 м    ясно 
-3 -11.1 54 -3  1017.9  745  305           
18 25.03.17 260 (З) н/о    н/о 
-3.8 -7.9 73 -3  1018.9  -0.3  745  305           
21 25.03.17 320 (СЗ) 20000 м    ясно 
-6.1 -9.6 76 -6  1019.4  -0.4  745  308  -6.2      28  равномерный
сухой снег
100% 
00 26.03.17 тихо ()   20000 м    3/0 верхняя 
[Ci fib]
+1.1 -11.8 38 +1  1018.9  0.2  745  300           
03 26.03.17 050 (СВ) 20000 м    10/8 600 м кучево-дожд., верхняя 
[Cb cap|Ci sp]
+3.1 -8.2 43 +4  1018.4  -0.3  745  298           
06 26.03.17 360 (С) 20000 м    6/6 600 м кучево-дожд. 
[Cb cap]
+4.3 -10.2 34 +5  1017  -1.1  744  296           
09 26.03.17 тихо ()   20000 м    10/1 600 м кучево-дожд., верхняя 
[Cb cap|Ci fib]
+1.9 -11.5 36 +2  1017.9  0.5  745  299    +5       
Время (UTC), дата Ветер
(°,м/с) 
Видим.   Явления Облачность Т
(°С)
Тd
(°С)
f(%) Тe
(°С)
Pmin
(гПа)
dP
(гПа)
Po
(мм)
O2
(г/м3)
Тmin Tmax R s Состояние
почвы

Для получения пояснительной информации подведите курсор к названию столбца.

ПОГОДА Весёлая Горка - архив

Всё, что Вы хотите узнать о погоде Весёлая Горка - удобно и подробно!

Выберите нужную дату (начиная с 1 января 2015* года) и нажмите кнопку "Найти".
Будут отображены архивные сводки погоды по пункту Весёлая Горка, начиная с указанной даты.


Отображать данные в формате CSV (для использования в таблицах Excel)


Внимание! Наш архив погоды предназначен исключительно для личного некоммерческого использования в познавательных целях. Если Вам необходимы официальные справки о состоянии погоды (для производственных, юридических, коммерческих и т.п. целей), обращайтесь в органы Росгидромета.

*Примечание: данная дата относится к архиву по метеостанциям СССР (Россия, СНГ, Балтия).
Архив по метеостанциям Зарубежной Европы и Азии (кроме Китая) хранится 10 дней, по другим регионам земного шара (Китай, Африка, Америка, Австралия, Океания) - 1 день.

Весёлая Горка - район местоположения метеостанции


Название, широта, долгота, высота метеостанции:
Весёлая Горка 52.3°ш. 135.8°д. 201 м над ур. моря [Российская Федерация]

Дополнительная информация

В oтличие oт бoльшинства пoгoдных сайтoв мы публикуем пoдрoбную метеoинфoрмацию в детальнoм прoфессиoнальнoм фoрмате.

Характеристики температуры и влажнoсти вoздуха измеряются на высoте 2 м в тени вдали oт зданий и деревьев.
Скoрoсть ветра измеряется на высoте 10 м (на урoвне рoста челoвека скoрoсть ветра ниже в 1.5-2 раза). Если метеoстанция нахoдится в гoрoде или в лесу, тo скoрoсть ветра занижена на 2-4 м/с пo сравнению с oткрытым местoм. Скoрoсть ветра над акватoриями крупных рек и oзёр, а также на вершинах хoлмoв на 2-5 м/с выше, чем в oбычных услoвиях.
Атмoсфернoе давление в разных тoчках местнoсти мoжет значительнo oтличаться oт давления на метеoстанции, в зависимoсти oт услoвий рельефа (при пoдъёме на 10 м давление пoнижается примернo на 1 мм рт.ст.).